Change the Weather History Date:

Sunday, January 13, 2013

  Actual Average (KAND) Record (KAND)
Temperature  
Mean Temperature 67 °F -  
Max Temperature 75 °F 49 °F 73 °F (1960)
Min Temperature 59 °F 31 °F 15 °F (1962)
Cooling Degree Days 2    
Growing Degree Days 17 (Base 50)    
Moisture  
Dew Point 59 °F    
Average Humidity 79    
Maximum Humidity 93    
Minimum Humidity 55    
Precipitation  
Precipitation 0.00 in - - ()
Sea Level Pressure  
Sea Level Pressure 30.10 in    
Wind  
Wind Speed 7 mph (SSW)    
Max Wind Speed 14 mph    
Max Gust Speed -    
Visibility 10 miles    
Events      
Averages and records for this station are not official NWS values.
T = Trace of Precipitation, MM = Missing Value Source: NWS Daily Summary

Daily Weather History Graph

Daily Weather History Graph

Search for Another Location

Airport or City:

Trip Planner

Search our weather history database for the weather conditions in past years. The results will help you decide how hot, cold, wet, or windy it might be!

Date:

Astronomy

Jan. 13, 2013 Rise Set
Actual Time 7:34 AM EST 5:40 PM EST
Civil Twilight 7:07 AM EST 6:07 PM EST
Nautical Twilight 6:36 AM EST 6:38 PM EST
Astronomical Twilight 6:06 AM EST 7:08 PM EST
Moon 8:39 AM EST (1/13) 8:08 PM EST (1/13)
Length of Visible Light 11h 00m
Length of Day
10h 05m
Waxing Crescent, 5% of the Moon is Illuminated
Jan 13
Waxing Crescent
Jan 18
First Quarter
Jan 26
Full
Feb 3
Last Quarter
Feb 10
New

Hourly Weather History & Observations

Time (EST) Temp. Dew Point Humidity Pressure Visibility Wind Dir Wind Speed Gust Speed Precip Events Conditions
12:56 AM 62.1 °F 57.9 °F 86% 30.10 in 10.0 mi SSW 6.9 mph - N/A   Clear
1:56 AM 61.0 °F 57.9 °F 90% 30.10 in 10.0 mi South 5.8 mph - N/A   Clear
2:56 AM 61.0 °F 57.9 °F 90% 30.11 in 10.0 mi South 3.5 mph - N/A   Overcast
3:56 AM 60.1 °F 57.9 °F 93% 30.10 in 10.0 mi South 6.9 mph - N/A   Overcast
4:56 AM 61.0 °F 57.0 °F 87% 30.09 in 10.0 mi South 9.2 mph - N/A   Mostly Cloudy
5:56 AM 60.1 °F 57.0 °F 90% 30.10 in 10.0 mi South 6.9 mph - N/A   Mostly Cloudy
6:56 AM 59.0 °F 57.0 °F 93% 30.12 in 10.0 mi South 4.6 mph - N/A   Mostly Cloudy
7:56 AM 59.0 °F 55.9 °F 90% 30.14 in 10.0 mi SSW 5.8 mph - N/A   Partly Cloudy
8:56 AM 61.0 °F 57.9 °F 90% 30.15 in 10.0 mi South 5.8 mph - N/A   Partly Cloudy
9:17 AM 62.6 °F 59.0 °F 88% 30.17 in 10.0 mi SW 8.1 mph - N/A   Mostly Cloudy
9:25 AM 64.4 °F 59.0 °F 83% 30.17 in 10.0 mi SW 8.1 mph - N/A   Scattered Clouds
10:56 AM 68.0 °F 59.0 °F 73% 30.15 in 10.0 mi SW 8.1 mph - N/A   Mostly Cloudy
11:56 AM 71.1 °F 60.1 °F 68% 30.11 in 10.0 mi SW 11.5 mph - N/A   Clear
12:56 PM 73.0 °F 60.1 °F 64% 30.08 in 10.0 mi SSW 9.2 mph - N/A   Partly Cloudy
1:56 PM 73.9 °F 60.1 °F 62% 30.06 in 10.0 mi South 13.8 mph - N/A   Partly Cloudy
2:56 PM 75.0 °F 57.9 °F 55% 30.06 in 10.0 mi SSW 12.7 mph - N/A   Partly Cloudy
3:56 PM 75.0 °F 59.0 °F 57% 30.07 in 10.0 mi SSW 8.1 mph - N/A   Clear
4:56 PM 73.0 °F 60.1 °F 64% 30.08 in 10.0 mi SSW 5.8 mph - N/A   Scattered Clouds
5:56 PM 69.1 °F 60.1 °F 73% 30.08 in 10.0 mi South 3.5 mph - N/A   Clear
6:56 PM 66.9 °F 60.1 °F 79% 30.09 in 10.0 mi South 3.5 mph - N/A   Clear
7:56 PM 64.9 °F 60.1 °F 84% 30.08 in 10.0 mi South 5.8 mph - N/A   Scattered Clouds
8:56 PM 66.9 °F 60.1 °F 79% 30.08 in 10.0 mi South 6.9 mph - N/A   Clear
9:56 PM 66.9 °F 60.1 °F 79% 30.06 in 10.0 mi South 8.1 mph - N/A   Clear
10:56 PM 64.9 °F 60.1 °F 84% 30.08 in 10.0 mi SSW 6.9 mph - N/A   Clear
11:56 PM 64.9 °F 60.1 °F 84% 30.08 in 10.0 mi South 6.9 mph - N/A   Clear